Terminal Aerodrome Forecast
Issued by NWS Wilmington, NC

Home | Current Version | Previous Version | Text Only | Print | Product List | Glossary On
Versions: 1 2 3 4 5 6 7 8 9 10 11 12 13 14 15 16 17 18 19
000
FTUS42 KILM 250532 CCA
TAFFLO
TAF COR
KFLO 250532Z 2506/2606 20007KT P6SM FEW050
      TEMPO 2506/2510 3SM BR SCT006
     FM251000 19006KT 5SM BR SCT006 BKN010
     FM251400 21011KT P6SM BKN015
     FM251600 22013G22KT P6SM SCT020 BKN050
     FM252000 22012KT P6SM VCSH OVC040=

USA.gov is the U.S. government's official web portal to all federal, state and local government web resources and services.